Location: Unspecified
(0.0000°N, 0.0000°E)
Time: 05:13:31
(UTC+00:00)

S-56A Canister/Altair - Pass Details

Date: 01 June 2024
Orbit: 637 x 2489 km, 38.9° (Epoch: 21 June)

Event Time Altitude Azimuth Distance (km) Brightness Sun altitude
Rises 01:15:20 0° 248° (WSW) 5,362 - -60.9°
Reaches altitude 10° 01:18:47 10° 254° (WSW) 4,573 - -60.4°
Maximum altitude 01:31:11 44° 321° (NW) 3,084 - -58.3°
Exits shadow 01:35:42 37° 357° (N) 3,410 10.7 -57.5°
Drops below altitude 10° 01:45:07 10° 29° (NNE) 5,074 12.0 -55.8°
Sets 01:49:17 0° 35° (NE) 5,976 12.6 -55.0°
